Location: Trois-Rivi�res
(46.3500°N, 72.5500°W)
Time: 19:41:12
(UTC-05:00)

Tiangong 2 - Pass Details

Date: 12 October 2017
Orbit: 386 x 390 km, 42.8° (Epoch: 11 December)

Event Time Altitude Azimuth Distance (km) Brightness Sun altitude
Exits shadow 05:19:26 31° 179° (S) 717 2.3 -18.7°
Maximum altitude 05:19:46 32° 166° (SSE) 703 2.4 -18.7°
Drops below altitude 10° 05:22:40 10° 101° (E) 1,424 5.0 -18.2°
Sets 05:24:52 0° 91° (E) 2,282 6.6 -17.8°
